Date String (YYYY-MM-DD hh:mm:ss) UTC,Instrument flags,Ambient pressure (hPa),Sample flow (lpm),Bypass flow (lpm),Sample temperature (°C),Ambient temperature (°C),ASC tube jacket temperature (°C),LED temperature (°C),Box temperature (°C),Sample RH (%),Span deviation,Mass concentration (μg/m³),Mass concentration (μg/m³),Mass concentration (μg/m³)
DateTimeUTC,F1_M11,P_M11,Q1_M11,Q2_M11,T1_M11,T2_M11,T3_M11,T4_M11,T5_M11,U1_M11,ZSPAN_M11,X2_M11,X0_M11,X1_M11
2021-12-17 01:00:00,,0818.1,5.01,0.00,26.4,25.4,00.0,35.3,28.2,06.4,0000.0,0004.69,0018.28,0002.58
2021-12-17 01:01:00,,0818.0,5.00,0.00,26.4,25.4,00.0,35.3,28.1,06.4,0000.0,0004.66,0018.35,0002.57
2021-12-17 01:02:00,,0818.0,4.99,0.00,26.4,25.4,00.0,35.3,28.1,06.4,0000.0,0004.65,0018.49,0002.55
2021-12-17 01:03:00,,0818.0,5.02,0.00,26.3,25.4,00.0,35.3,28.1,06.4,0000.0,0004.59,0018.49,0002.51
2021-12-17 01:04:00,,0818.0,4.99,0.00,26.3,25.4,00.0,35.3,28.1,06.5,0000.0,0004.54,0018.75,0002.48
2021-12-17 01:05:00,,0818.0,4.99,0.00,26.3,25.3,00.0,35.3,28.1,06.5,0000.0,0004.53,0019.13,0002.46
2021-12-17 01:06:00,,0817.9,5.01,0.00,26.3,25.3,00.0,35.3,28.1,06.6,0000.0,0004.48,0018.85,0002.45
2021-12-17 01:07:00,,0818.0,4.99,0.00,26.3,25.3,00.0,35.3,28.1,06.6,0000.0,0004.45,0018.55,0002.43
2021-12-17 01:08:00,,0818.0,5.01,0.00,26.3,25.3,00.0,35.3,28.1,06.6,0000.0,0004.37,0016.89,0002.40
2021-12-17 01:09:00,,0818.0,4.99,0.00,26.3,25.3,00.0,35.3,28.1,06.6,0000.0,0004.37,0017.56,0002.38
2021-12-17 01:10:00,,0818.0,5.01,0.00,26.3,25.3,00.0,35.3,28.1,06.5,0000.0,0004.34,0018.32,0002.37
2021-12-17 01:11:00,,0818.0,5.00,0.00,26.3,25.3,00.0,35.3,28.1,06.5,0000.0,0004.34,0018.18,0002.36
2021-12-17 01:12:00,,0818.0,5.01,0.00,26.3,25.3,00.0,35.3,28.1,06.5,0000.0,0004.35,0017.72,0002.37
2021-12-17 01:13:00,,0818.0,4.99,0.00,26.3,25.3,00.0,35.2,28.1,06.5,0000.0,0004.36,0018.75,0002.37
2021-12-17 01:14:00,,0818.0,4.98,0.00,26.3,25.3,00.0,35.2,28.1,06.5,0000.0,0004.38,0018.99,0002.36
2021-12-17 01:15:00,,0818.0,5.00,0.00,26.3,25.3,00.0,35.2,28.1,06.5,0000.0,0004.36,0019.56,0002.36
2021-12-17 01:16:00,,0818.0,5.01,0.00,26.3,25.3,00.0,35.2,28.1,06.4,0000.0,0004.40,0020.25,0002.35
2021-12-17 01:17:00,,0818.0,4.99,0.00,26.2,25.3,00.0,35.2,28.1,06.5,0000.0,0004.44,0020.76,0002.32
2021-12-17 01:18:00,,0818.0,5.02,0.00,26.2,25.3,00.0,35.2,28.0,06.4,0000.0,0004.43,0021.39,0002.31
2021-12-17 01:19:00,,0817.9,4.98,0.00,26.2,25.2,00.0,35.2,28.0,06.4,0000.0,0004.46,0022.61,0002.28
2021-12-17 01:20:00,,0817.9,5.01,0.00,26.2,25.2,00.0,35.2,28.0,06.3,0000.0,0004.48,0021.81,0002.27
2021-12-17 01:21:00,,0818.0,5.00,0.00,26.2,25.2,00.0,35.2,28.0,06.3,0000.0,0004.54,0021.18,0002.23
2021-12-17 01:22:00,,0818.0,5.00,0.00,26.2,25.2,00.0,35.2,28.0,06.3,0000.0,0004.55,0021.96,0002.21
2021-12-17 01:23:00,,0818.0,5.00,0.00,26.2,25.2,00.0,35.2,28.0,06.4,0000.0,0004.48,0022.04,0002.18
2021-12-17 01:24:00,,0818.0,5.01,0.00,26.2,25.2,00.0,35.2,28.0,06.4,0000.0,0004.45,0020.63,0002.17
2021-12-17 01:25:00,,0818.0,4.99,0.00,26.2,25.2,00.0,35.2,27.9,06.5,0000.0,0004.45,0020.01,0002.17
2021-12-17 01:26:00,,0818.0,5.01,0.00,26.2,25.2,00.0,35.2,27.9,06.5,0000.0,0004.47,0020.03,0002.16
2021-12-17 01:27:00,,0817.9,5.01,0.00,26.2,25.1,00.0,35.1,27.9,06.5,0000.0,0004.43,0019.04,0002.15
2021-12-17 01:28:00,,0817.9,5.00,0.00,26.2,25.1,00.0,35.1,27.9,06.6,0000.0,0004.47,0019.19,0002.17
2021-12-17 01:29:00,,0817.9,4.99,0.00,26.1,25.1,00.0,35.1,27.8,06.6,0000.0,0004.54,0019.20,0002.20
2021-12-17 01:30:00,,0817.9,5.01,0.00,26.1,25.1,00.0,35.1,27.8,06.6,0000.0,0004.52,0018.41,0002.26
2021-12-17 01:31:00,,0817.9,5.00,0.00,26.1,25.1,00.0,35.1,27.8,06.6,0000.0,0004.47,0018.79,0002.34
2021-12-17 01:32:00,,0817.9,4.99,0.00,26.1,25.1,00.0,35.1,27.8,06.6,0000.0,0004.48,0018.74,0002.42
2021-12-17 01:33:00,,0817.9,5.00,0.00,26.1,25.1,00.0,35.1,27.7,06.6,0000.0,0004.49,0018.34,0002.49
2021-12-17 01:34:00,,0818.0,5.00,0.00,26.0,25.1,00.0,35.1,27.7,06.6,0000.0,0004.51,0018.48,0002.54
2021-12-17 01:35:00,,0818.0,5.00,0.00,26.0,25.0,00.0,35.1,27.7,06.7,0000.0,0004.54,0018.87,0002.59
2021-12-17 01:36:00,,0818.0,4.99,0.00,26.0,25.0,00.0,35.0,27.7,06.7,0000.0,0004.56,0018.11,0002.64
2021-12-17 01:37:00,,0818.0,5.00,0.00,26.0,25.0,00.0,35.0,27.6,06.7,0000.0,0004.55,0017.41,0002.70
2021-12-17 01:38:00,,0817.9,5.00,0.00,25.9,25.0,00.0,35.0,27.6,06.7,0000.0,0004.53,0018.48,0002.76
2021-12-17 01:39:00,,0817.9,4.99,0.00,25.9,24.9,00.0,35.0,27.6,06.7,0000.0,0004.52,0018.30,0002.81
2021-12-17 01:40:00,,0817.9,5.00,0.00,25.9,24.9,00.0,35.0,27.6,06.7,0000.0,0004.47,0018.51,0002.84
2021-12-17 01:41:00,,0817.9,5.02,0.00,25.9,24.9,00.0,35.0,27.6,06.7,0000.0,0004.51,0018.61,0002.84
2021-12-17 01:42:00,,0817.9,5.01,0.00,25.9,24.9,00.0,35.0,27.5,06.7,0000.0,0004.53,0018.51,0002.79
2021-12-17 01:43:00,,0818.0,5.00,0.00,25.9,24.9,00.0,35.0,27.5,06.6,0000.0,0004.55,0018.75,0002.75
2021-12-17 01:44:00,,0818.0,5.02,0.00,25.8,24.9,00.0,34.9,27.5,06.6,0000.0,0004.63,0019.20,0002.71
2021-12-17 01:45:00,,0818.0,5.00,0.00,25.8,24.9,00.0,34.9,27.5,06.6,0000.0,0004.66,0019.20,0002.68
2021-12-17 01:46:00,,0818.0,4.99,0.00,25.8,24.8,00.0,34.9,27.5,06.5,0000.0,0004.56,0019.06,0002.62
2021-12-17 01:47:00,,0818.0,5.00,0.00,25.8,24.8,00.0,34.9,27.4,06.5,0000.0,0004.47,0019.31,0002.56
2021-12-17 01:48:00,,0818.0,5.01,0.00,25.8,24.8,00.0,34.9,27.4,06.6,0000.0,0004.43,0019.61,0002.50
2021-12-17 01:49:00,,0818.0,4.99,0.00,25.8,24.8,00.0,34.9,27.4,06.6,0000.0,0004.44,0018.48,0002.46
2021-12-17 01:50:00,,0818.0,5.00,0.00,25.7,24.8,00.0,34.8,27.4,06.6,0000.0,0004.46,0018.12,0002.40
2021-12-17 01:51:00,,0818.0,5.01,0.00,25.7,24.8,00.0,34.8,27.4,06.5,0000.0,0004.44,0017.71,0002.34
2021-12-17 01:52:00,,0818.1,5.00,0.00,25.7,24.8,00.0,34.8,27.4,06.6,0000.0,0004.42,0017.40,0002.29
2021-12-17 01:53:00,,0818.1,5.00,0.00,25.7,24.8,00.0,34.8,27.4,06.6,0000.0,0004.42,0017.96,0002.28
2021-12-17 01:54:00,,0818.1,5.00,0.00,25.7,24.8,00.0,34.8,27.3,06.6,0000.0,0004.41,0018.66,0002.26
2021-12-17 01:55:00,,0818.0,4.99,0.00,25.7,24.7,00.0,34.8,27.3,06.7,0000.0,0004.35,0018.71,0002.28
2021-12-17 01:56:00,,0818.1,5.00,0.00,25.6,24.7,00.0,34.8,27.3,06.7,0000.0,0004.33,0018.40,0002.28
2021-12-17 01:57:00,,0818.1,5.01,0.00,25.6,24.7,00.0,34.8,27.3,06.7,0000.0,0004.44,0019.00,0002.32
2021-12-17 01:58:00,,0818.1,5.01,0.00,25.6,24.7,00.0,34.7,27.3,06.7,0000.0,0004.52,0019.56,0002.34
2021-12-17 01:59:00,,0818.1,5.00,0.00,25.6,24.7,00.0,34.7,27.3,06.7,0000.0,0004.58,0018.70,0002.34
